GFSFLT1_700_temp_000.txt.gz
Temp
16 17 17 16 16 16 16 15 15 14 14 14 14 13 13 12 11 11 11 11 11 11 11 10 10 10 9 9 9 9 10 10 9
18 18 18 17 16 16 16 15 15 15 14 14 14 13 13 13 12 12 11 11 11 11 10 10 10 9 9 9 9 9 9 9 9
19 19 18 18 17 16 16 15 15 15 14 14 14 13 13 13 12 12 11 11 11 11 10 9 9 9 9 8 8 8 8 9 9
19 19 19 18 17 17 16 15 15 14 14 14 13 13 13 13 13 12 11 11 10 10 10 9 9 8 9 8 8 8 8 8 7
19 19 19 19 18 17 17 16 15 14 14 14 14 13 13 13 13 12 12 11 10 10 9 9 8 8 7 7 7 7 7 7 7
19 19 19 19 18 18 17 16 15 15 14 14 14 13 13 13 12 12 12 11 10 10 9 8 9 10 8 6 7 7 7 6 6
19 19 19 19 19 18 17 17 16 16 15 14 14 13 13 13 13 12 12 11 10 9 9 9 10 10 7 5 5 6 6 5 5
18 19 19 19 18 18 18 17 16 16 15 15 14 14 14 14 13 13 12 11 10 10 9 10 10 9 8 7 6 6 5 5 5
18 19 18 19 18 18 17 17 17 16 16 15 15 14 14 14 13 13 13 12 11 11 11 11 10 9 8 7 6 6 5 4 4
18 19 18 18 18 18 17 17 17 16 16 15 15 15 15 14 14 14 14 13 12 12 11 11 10 10 7 6 5 5 5 4 4
18 18 18 18 18 18 18 17 16 16 16 16 16 15 15 14 14 14 13 13 12 12 12 11 9 9 7 5 6 5 5 4 4
18 18 18 18 18 18 18 17 16 16 16 16 16 15 15 14 14 13 12 12 12 11 11 10 10 9 8 7 6 5 4 4 3
18 18 18 18 18 18 18 17 16 16 16 16 15 15 15 14 12 12 12 11 11 11 10 10 9 8 8 7 5 5 4 4 3
18 18 18 18 18 17 17 16 16 16 15 15 14 14 13 13 12 12 12 12 11 10 9 8 7 7 6 6 5 4 4 4 3
17 18 17 17 17 16 16 15 15 15 14 13 13 13 12 12 12 12 11 10 10 10 8 7 7 7 6 6 4 4 3 4 3
16 16 15 15 14 14 14 14 14 13 12 12 12 12 12 12 11 10 10 9 9 9 7 7 7 6 5 4 4 4 4 4 3
13 13 13 13 12 13 13 13 13 13 12 12 12 12 11 10 10 9 9 8 8 7 7 6 6 5 5 4 4 3 4 3 2
11 11 10 11 11 11 12 12 12 12 12 12 12 11 11 10 9 8 7 7 7 6 6 6 5 5 4 4 3 3 3 2 2
10 11 11 11 11 11 12 12 12 12 12 12 11 10 9 9 8 7 7 6 6 6 6 6 6 4 3 3 3 3 2 2 2
10 11 11 11 11 11 11 11 11 10 10 10 10 9 8 7 7 7 7 6 6 6 6 5 5 4 4 3 3 2 2 2 1

GFSFLT1_700_temp_003.txt.gz
Temp
19 17 16 15 17 17 17 17 16 15 15 14 14 14 14 13 12 11 11 11 11 10 10 10 11 10 9 9 9 9 9 9 9
19 18 17 16 17 18 17 17 16 16 15 14 14 14 13 13 12 11 11 11 11 11 11 11 10 10 10 10 10 9 8 8 8
19 19 17 16 16 18 18 17 16 16 15 14 14 14 13 13 12 12 11 11 11 11 11 11 11 10 10 10 10 10 9 8 8
19 19 17 16 16 18 18 17 16 16 15 15 14 14 14 13 13 12 12 12 12 12 11 11 11 11 10 10 9 8 8 8 7
20 19 18 17 16 15 17 18 17 16 15 15 15 14 14 13 13 13 12 12 12 12 11 11 11 11 10 10 9 8 7 7 7
19 19 18 17 17 16 16 17 18 16 15 15 14 14 14 13 13 13 13 13 13 12 12 12 12 11 11 10 9 8 8 7 6
19 19 18 18 17 16 16 16 18 17 16 15 14 14 14 13 13 13 13 13 13 12 12 12 12 11 11 10 9 8 7 7 5
18 19 18 19 19 19 18 16 17 17 16 15 14 14 14 13 13 13 13 13 13 12 12 12 11 11 11 9 9 8 7 6 6
18 18 18 18 19 19 19 18 18 18 16 15 14 14 14 14 14 14 14 13 13 12 12 11 11 11 10 11 9 7 6 5 5
18 18 18 18 19 19 19 18 18 17 17 15 15 15 14 14 15 14 14 14 14 13 13 12 12 11 11 11 10 8 6 6 5
18 17 18 18 18 19 19 18 18 17 17 16 16 15 15 15 15 14 14 14 14 14 13 12 12 12 11 10 9 7 6 5 5
18 18 18 17 18 18 18 18 18 17 17 16 16 16 15 15 15 14 14 14 13 12 12 12 12 11 11 10 9 8 7 5 5
17 17 17 17 18 18 18 18 18 17 16 16 16 15 15 15 14 14 14 12 12 12 12 12 12 11 10 9 8 7 7 6 5
17 17 18 18 18 18 18 18 18 17 16 16 16 15 15 15 14 13 12 12 12 12 11 12 11 10 9 8 8 7 6 6 4
16 17 17 18 18 18 18 17 17 16 16 16 15 15 14 14 13 12 12 12 12 12 11 10 9 8 8 8 7 7 7 5 4
15 16 16 16 16 17 17 15 15 14 14 14 14 14 13 13 12 12 12 12 11 11 10 9 8 8 8 8 7 7 5 4 4
10 10 11 11 12 14 14 13 13 12 12 12 12 12 12 12 12 12 11 10 10 9 8 8 8 8 7 7 6 6 5 4 4
8 8 8 9 11 11 12 12 12 12 12 12 12 12 12 12 12 11 10 9 8 8 8 7 7 6 7 6 6 5 4 4 4
9 9 10 10 10 11 11 11 11 12 12 12 12 12 11 11 10 9 8 8 7 7 7 6 6 6 6 5 5 4 3 3 3
11 11 11 11 11 11 11 11 11 12 11 11 10 10 10 10 9 8 8 7 7 7 7 6 6 6 5 5 4 4 3 2 2

GFSFLT1_700_temp_006.txt.gz
Temp
18 18 17 16 17 17 17 17 17 17 17 15 14 14 14 13 13 12 12 12 12 12 11 11 12 11 11 11 11 10 9 9 9
20 19 18 17 16 17 17 17 17 17 17 16 15 14 14 14 13 13 13 13 12 12 12 12 12 11 11 11 11 10 9 9 8
20 20 18 18 17 17 17 17 17 16 16 16 15 14 14 14 13 13 13 13 12 12 12 12 12 11 11 11 11 11 10 9 8
20 20 19 18 18 17 17 16 17 17 16 16 15 14 14 14 13 13 13 13 13 13 12 12 12 11 11 11 11 10 10 9 9
20 20 20 19 18 17 17 18 17 18 16 16 15 15 15 14 14 14 14 13 13 13 13 12 12 11 11 11 11 10 10 9 9
20 19 19 19 18 17 17 19 18 18 17 16 16 15 15 14 14 14 14 13 13 13 13 13 12 12 11 11 11 11 10 10 9
19 19 19 18 18 17 17 18 18 18 18 16 15 15 15 15 14 14 14 14 13 13 13 13 12 12 11 11 11 10 10 9 9
19 19 18 18 18 18 17 17 18 17 17 17 16 15 15 15 14 14 14 14 14 13 13 13 12 12 11 11 10 10 9 9 8
19 19 19 18 18 18 17 17 17 17 17 17 15 15 15 15 15 15 14 14 14 14 13 13 12 12 11 11 11 11 10 9 8
18 18 18 18 18 18 18 18 18 18 17 16 16 16 16 16 15 15 15 14 14 14 13 13 13 12 12 12 11 11 10 8 7
18 18 18 18 18 18 18 18 18 17 16 16 16 15 15 15 15 16 15 15 14 13 13 13 13 12 12 12 11 11 10 8 6
17 17 18 18 18 18 17 18 18 18 18 17 17 16 16 16 16 16 15 14 13 13 13 13 12 12 12 11 11 11 9 7 6
17 18 18 18 18 18 17 18 18 18 18 18 17 17 17 16 16 15 14 13 13 13 12 12 12 12 12 10 10 9 8 7 6
17 17 18 17 17 17 17 18 18 18 18 18 17 17 16 15 15 14 13 14 13 12 12 12 12 11 10 9 9 8 8 6 7
15 16 17 16 16 16 17 18 18 18 18 17 16 16 16 15 14 13 13 12 12 12 12 12 11 10 9 9 8 7 7 7 6
15 16 16 15 15 16 16 16 16 16 16 16 16 15 14 14 13 12 13 13 12 12 12 11 10 10 9 8 8 7 7 6 6
14 15 14 13 15 15 15 14 15 15 15 15 14 14 13 12 12 12 12 12 12 11 11 10 9 9 8 7 7 7 7 6 5
12 12 13 12 12 12 12 13 13 13 12 12 12 12 12 12 12 12 12 12 11 10 10 8 8 7 7 7 6 6 6 5 5
9 9 9 9 9 10 11 11 11 11 12 12 12 12 12 12 12 11 11 10 9 8 7 7 7 7 7 6 6 5 5 5 4
8 7 8 9 10 10 10 11 11 11 12 12 12 12 12 11 11 10 9 8 7 7 7 7 6 6 6 5 5 5 4 4 4

GFSFLT1_700_temp_009.txt.gz
Temp
18 17 17 17 17 18 19 17 17 17 17 16 15 14 14 14 14 14 14 13 13 13 13 12 12 11 11 11 11 11 10 10 10
18 17 17 16 17 18 18 18 17 17 17 17 15 14 14 14 15 14 14 13 13 13 13 12 12 11 11 11 11 11 10 10 10
19 19 18 17 17 17 18 19 17 17 17 17 16 15 15 15 15 14 14 13 13 13 13 12 12 12 11 11 11 11 10 10 10
20 19 19 17 17 18 19 19 17 17 17 16 16 16 15 15 15 14 14 13 13 13 13 13 13 12 11 11 11 11 10 10 10
20 19 19 19 17 18 19 19 18 18 17 17 16 16 16 15 14 14 14 14 13 13 13 13 13 12 11 11 11 11 10 10 10
19 19 20 19 18 18 18 19 19 18 18 17 17 16 16 15 15 14 14 14 13 13 13 13 13 12 12 12 11 11 11 10 10
19 19 19 19 18 18 19 19 19 18 18 17 17 16 16 15 15 15 15 14 14 14 13 13 13 13 12 12 11 11 11 10 9
20 19 19 19 19 18 19 18 19 18 17 17 17 17 16 15 15 15 15 14 14 14 13 13 13 13 13 12 12 11 11 10 10
19 19 19 19 19 18 18 18 19 19 18 17 16 17 17 16 15 15 15 14 14 14 13 13 13 13 12 12 11 11 11 10 10
19 19 18 18 18 18 18 18 18 18 18 18 17 16 17 16 16 16 16 15 14 14 13 13 13 13 12 11 11 11 11 11 10
18 17 18 18 18 18 18 17 17 17 18 18 18 17 17 17 16 15 15 15 14 14 13 13 13 12 12 12 11 11 11 11 10
18 17 16 17 17 18 18 18 18 17 17 18 18 18 18 17 17 16 16 15 14 14 13 13 11 11 12 12 11 11 10 10 9
17 17 17 18 17 17 18 18 18 18 18 17 18 18 18 17 16 16 16 15 14 14 12 12 11 12 12 11 11 10 10 9 8
17 17 17 17 18 18 17 17 18 17 18 18 18 18 17 16 15 16 16 15 13 12 12 12 12 12 12 12 11 10 10 9 8
16 17 16 16 17 17 18 17 17 17 18 17 17 16 15 16 16 16 15 12 11 11 12 12 12 12 11 10 10 10 9 8 7
15 16 16 16 16 16 17 17 17 16 17 17 16 14 15 16 16 15 14 12 11 12 12 12 12 12 10 9 9 9 8 7 7
13 14 14 15 16 16 16 16 17 16 16 17 16 14 14 15 14 13 12 12 12 12 12 12 12 11 10 9 9 8 7 6 6
14 13 13 14 15 16 15 14 14 15 15 16 15 13 13 13 13 12 12 12 12 12 12 11 10 9 9 8 7 6 6 6 6
12 12 9 13 14 15 15 14 14 14 13 12 12 12 12 11 12 12 12 12 12 12 10 10 9 8 7 7 6 6 6 5 5
10 11 9 10 11 13 13 13 11 11 11 11 11 11 11 12 12 12 12 11 11 10 10 8 7 7 6 6 6 5 5 5 4

GFSFLT1_700_temp_015.txt.gz
Temp
18 18 18 18 17 17 17 16 16 15 14 13 13 14 14 14 13 13 13 12 13 12 13 12 12 11 11 11 11 10 10 10 10
18 18 18 18 18 17 17 17 17 16 16 15 14 13 13 13 13 13 13 13 13 13 13 12 12 12 11 11 11 10 10 10 10
18 18 18 18 18 18 17 18 17 17 16 16 15 14 13 13 14 13 13 13 13 13 13 12 12 12 12 12 11 11 10 10 10
18 18 18 19 18 18 18 17 17 18 17 16 15 14 13 13 14 14 14 13 14 13 13 13 12 12 12 12 11 11 10 10 10
19 18 19 19 19 18 18 18 17 18 18 17 16 15 14 14 14 14 14 14 14 13 13 13 12 12 12 12 11 11 11 10 10
19 19 19 20 18 18 19 18 18 18 18 17 16 16 15 15 15 15 15 14 14 14 14 13 13 12 12 12 12 11 11 10 10
19 19 19 20 19 18 18 18 18 18 18 18 17 16 15 15 15 15 15 15 14 14 14 13 13 13 12 12 12 11 11 10 10
18 19 19 19 18 19 18 17 17 18 18 18 17 16 15 16 15 15 15 15 14 14 14 14 13 13 13 12 12 12 11 10 10
18 18 19 18 18 18 18 18 18 18 18 18 18 17 16 16 15 15 15 15 15 14 14 14 14 13 13 13 13 12 12 10 9
18 18 18 17 17 18 19 19 19 18 18 18 18 17 17 16 16 16 16 15 15 15 15 15 14 14 13 13 13 12 12 12 11
18 18 18 18 18 18 19 19 19 19 18 18 18 17 17 17 16 16 16 15 15 15 15 15 15 14 13 13 13 12 12 12 11
17 18 18 18 19 18 18 19 19 19 18 18 18 18 17 17 16 16 16 16 15 15 15 15 15 14 13 13 13 12 11 11 11
17 17 18 18 18 18 18 18 18 18 18 18 18 18 18 17 17 16 16 15 15 15 15 15 14 14 13 13 13 12 12 11 12
17 17 17 17 18 18 18 18 18 18 18 18 18 18 18 17 17 17 16 16 15 15 15 15 14 14 14 13 13 12 13 12 12
17 17 17 17 17 17 17 17 17 17 17 17 17 18 17 18 18 18 17 16 15 15 15 15 14 14 13 12 12 12 13 11 11
17 17 17 17 17 17 17 17 17 17 17 17 17 17 17 17 17 17 17 16 15 15 14 13 12 13 12 11 11 11 10 11 10
15 16 15 16 16 16 17 17 17 17 17 17 17 17 17 17 17 17 16 17 16 15 14 13 12 11 11 11 10 9 10 10 9
14 14 14 14 14 14 14 15 16 16 16 16 17 17 16 16 17 17 17 16 16 15 14 11 11 10 9 9 8 9 10 9 9
13 13 13 13 13 14 14 15 15 15 15 15 16 16 16 16 16 16 16 16 15 14 12 10 9 9 9 9 7 9 9 10 9
12 12 12 12 13 13 14 14 12 12 12 12 13 14 16 16 15 15 15 15 14 13 11 9 8 7 11 9 8 9 10 9 9

GFSFLT1_700_temp_021.txt.gz
Temp
18 17 17 16 16 16 15 15 14 14 14 14 14 13 13 13 13 13 13 12 12 12 12 11 11 11 11 10 10 10 10 9 9
17 17 18 18 17 16 16 16 15 15 14 14 14 14 14 14 13 13 13 13 12 12 12 11 11 11 11 11 10 10 10 10 10
18 18 18 18 18 17 17 17 16 16 15 15 14 14 14 14 14 13 13 13 12 12 12 12 11 11 11 11 11 11 10 10 10
18 18 18 18 18 18 18 17 17 17 16 16 15 15 14 14 13 13 13 12 12 12 12 12 12 12 12 11 11 11 11 11 11
18 18 18 18 18 18 18 18 18 17 17 17 16 16 15 15 14 13 13 12 12 11 12 12 12 12 12 12 11 11 11 11 11
18 18 18 18 18 18 18 18 18 18 18 17 16 16 16 15 15 14 14 14 12 11 12 13 12 12 12 12 12 11 11 11 11
16 17 17 17 18 18 18 18 18 18 18 18 17 17 16 16 15 15 15 14 13 13 12 13 13 13 13 12 12 12 11 11 11
16 17 17 17 17 18 18 18 18 19 19 18 18 17 17 17 16 16 15 15 14 15 14 14 13 13 13 13 12 12 12 12 12
16 16 16 17 17 17 17 18 19 19 19 18 18 17 17 17 17 16 16 15 14 14 15 14 14 13 13 13 13 12 12 12 12
15 16 16 17 17 17 17 18 19 19 19 19 18 18 17 17 17 17 16 16 15 15 15 15 15 14 13 14 13 13 12 12 12
15 16 17 17 17 17 17 18 18 19 19 19 18 18 18 18 18 17 17 16 16 15 15 15 15 15 14 14 14 13 13 13 12
16 16 17 17 17 17 18 18 18 19 18 18 18 18 18 18 18 18 17 17 16 16 15 15 15 15 14 14 14 14 13 13 12
16 16 16 17 17 17 18 18 18 19 19 18 18 18 18 18 18 17 18 17 16 16 15 15 15 15 15 14 14 14 13 13 13
16 16 16 17 17 17 17 18 18 18 18 18 18 18 18 18 18 18 18 17 17 16 16 15 15 15 15 15 14 14 13 13 13
16 16 16 17 17 17 17 17 17 18 18 18 18 18 18 18 18 18 18 17 17 16 16 15 15 15 14 15 15 14 14 13 13
15 16 16 17 17 17 17 17 17 17 17 18 18 18 18 18 18 18 18 18 17 16 16 16 16 16 15 14 15 14 14 13 13
15 16 16 16 17 17 17 17 17 17 17 17 17 17 17 17 18 18 17 17 17 17 17 17 16 16 16 15 14 14 14 13 12
14 15 16 16 16 17 17 17 17 17 17 17 17 17 17 17 17 17 17 17 17 17 17 16 16 15 16 15 15 15 14 12 11
12 13 13 14 14 15 15 15 16 16 16 16 16 17 17 17 17 17 17 17 17 17 17 16 16 16 16 15 14 14 12 10 10
11 12 12 13 13 14 14 14 14 15 15 15 15 16 16 16 16 16 16 16 16 16 16 16 15 15 16 15 14 13 11 11 11

GFSFLT1_700_temp_024.txt.gz
Temp
16 17 17 17 17 16 15 15 14 14 14 14 14 13 13 13 13 13 13 12 12 12 12 11 11 11 11 11 11 10 10 10 10
17 17 17 17 17 16 16 15 15 14 14 14 14 14 13 13 13 13 13 13 12 12 12 12 11 12 12 11 11 11 10 10 10
17 16 18 18 17 17 17 17 16 15 15 14 14 14 14 14 14 13 13 13 13 13 12 12 12 12 12 12 11 11 11 11 10
17 17 17 18 18 18 17 17 17 17 16 15 14 14 14 14 14 14 14 13 13 13 13 12 12 12 12 12 11 11 11 11 11
17 17 17 18 18 18 18 18 17 17 17 17 16 15 15 14 14 14 14 14 13 13 13 13 12 12 12 12 12 12 11 11 11
16 16 17 18 18 18 18 18 18 18 18 17 17 16 16 15 15 14 14 14 13 13 12 13 13 13 13 13 13 12 12 12 12
15 16 16 17 18 18 18 18 18 18 18 18 17 17 17 16 16 16 15 14 14 13 13 12 13 13 13 13 13 13 12 12 12
16 16 16 16 17 17 18 18 18 18 18 18 18 17 17 17 16 16 15 15 14 14 13 13 13 13 13 13 13 13 13 12 12
16 16 16 16 17 17 17 17 18 18 18 18 18 18 17 17 17 16 16 15 15 14 14 14 13 14 14 14 14 14 14 13 13
15 16 16 16 16 17 17 17 18 18 18 18 18 18 18 17 17 17 16 16 16 15 15 14 14 15 15 15 14 14 14 14 13
15 15 16 17 17 16 17 17 17 18 19 19 19 19 18 18 17 17 17 17 17 16 16 15 15 15 15 15 15 15 14 14 13
15 16 16 16 17 17 17 17 17 18 19 19 19 19 18 18 18 18 17 17 17 17 16 16 16 16 15 15 15 15 14 14 13
14 15 16 16 17 17 17 17 17 18 18 19 19 19 18 18 18 18 18 18 17 17 17 16 16 16 16 15 15 15 15 14 14
15 16 16 16 16 17 17 17 18 18 18 18 19 18 18 18 18 18 18 18 18 18 17 17 16 16 16 15 15 15 15 15 14
15 15 16 16 16 16 17 17 17 17 18 18 18 18 18 18 18 18 18 18 18 18 18 17 17 16 16 16 16 15 15 15 14
15 15 15 16 16 16 17 17 17 17 17 18 18 18 18 18 18 18 18 18 18 18 18 17 17 17 16 17 16 15 16 15 15
14 15 15 16 16 16 17 17 17 17 17 17 17 18 18 18 18 18 18 18 18 18 18 18 17 17 17 16 16 16 16 16 15
14 15 15 15 16 16 16 17 17 17 17 17 17 17 17 17 17 17 17 17 17 17 17 17 17 16 16 16 16 16 16 16 15
13 14 14 15 15 15 16 16 16 17 17 17 17 17 17 17 17 17 17 17 17 17 17 17 17 16 16 16 16 16 16 15 14
11 11 11 12 13 13 14 14 15 15 16 16 16 16 16 16 16 16 16 16 16 16 17 17 16 16 16 16 15 16 16 15 14

GFSFLT1_700_temp_027.txt.gz
Temp
18 17 16 15 13 14 15 15 15 14 14 14 14 14 13 13 13 13 13 13 12 12 12 12 12 12 12 12 11 11 11 11 11
18 18 16 15 14 14 16 15 15 14 14 14 14 14 14 13 13 13 13 13 13 13 13 12 12 12 12 12 12 11 11 11 11
18 18 17 16 15 14 17 16 16 15 15 15 15 14 14 14 13 13 13 13 13 13 13 13 12 13 12 13 13 12 11 11 11
18 18 17 16 15 15 16 16 16 16 16 15 15 15 15 14 14 14 14 13 13 13 13 13 13 13 13 13 13 12 12 12 11
18 18 18 17 16 15 14 16 17 17 17 16 16 15 15 15 15 14 14 14 14 14 13 13 13 13 13 13 13 13 12 12 12
18 18 18 17 17 16 15 15 17 17 17 17 17 16 16 15 15 15 15 15 14 14 14 13 13 13 13 13 13 13 13 12 12
18 17 17 17 17 17 16 15 17 18 18 17 17 17 16 16 17 17 16 15 15 14 14 13 13 13 13 13 13 14 14 14 13
16 16 16 16 16 16 16 15 17 18 17 17 17 17 17 17 17 17 16 15 15 14 14 14 13 13 13 13 13 14 14 14 13
15 15 15 15 15 16 17 17 18 18 18 18 18 18 18 18 17 17 17 16 16 15 15 15 14 14 15 14 14 14 14 14 14
14 14 15 15 15 15 17 17 18 17 18 18 18 18 18 18 18 17 17 17 16 17 16 15 15 15 15 15 15 15 15 15 14
14 15 15 15 16 16 15 16 16 17 17 18 18 18 19 19 18 18 17 17 17 17 16 16 16 16 15 15 16 15 15 15 15
15 14 14 15 15 16 15 15 15 15 16 18 18 19 19 19 19 18 18 17 17 17 17 17 16 16 16 16 16 16 15 15 15
13 14 14 14 14 14 14 16 17 17 17 18 18 19 19 19 19 19 18 18 17 17 17 17 16 16 17 17 17 16 16 15 15
14 15 15 14 15 16 16 16 17 17 17 17 18 18 18 19 19 19 18 18 17 17 17 17 17 17 17 17 17 17 16 16 15
13 13 14 15 15 16 16 16 17 17 17 17 18 18 18 19 19 18 18 18 18 17 17 17 17 17 17 17 18 17 17 16 16
13 14 14 15 15 16 16 16 17 17 17 17 17 17 18 18 18 18 18 18 18 17 18 18 18 18 18 18 17 17 17 17 16
13 14 14 15 15 15 16 16 16 17 17 17 17 17 17 18 18 18 18 18 18 18 18 18 18 18 18 18 17 17 17 17 16
13 14 14 14 15 15 15 16 16 16 17 17 17 17 17 17 18 18 18 18 17 18 17 17 17 17 17 16 16 16 16 16 16
13 13 14 14 15 15 15 16 16 16 16 16 17 17 17 17 17 17 17 17 17 17 16 17 17 16 16 16 16 15 16 15 15
12 12 13 13 14 15 15 15 15 16 16 16 16 16 17 16 16 16 16 16 16 16 16 16 16 16 16 16 16 15 15 15 15

GFSFLT1_700_temp_030.txt.gz
Temp
18 17 17 16 15 14 15 15 15 15 14 14 14 14 13 13 13 13 13 13 13 13 13 13 13 13 13 12 12 12 11 11 11
19 18 17 16 15 14 16 15 15 15 15 15 14 14 14 13 13 13 13 13 13 13 13 13 13 13 13 13 13 12 11 11 11
19 19 18 17 16 15 17 16 15 15 15 15 15 14 14 14 14 13 13 13 13 13 13 13 13 14 13 13 13 13 12 11 11
19 19 18 17 16 15 17 17 16 15 15 15 15 15 15 14 14 14 14 14 13 13 13 13 13 13 13 13 13 13 13 12 12
19 19 18 18 17 16 15 17 17 16 16 16 16 15 15 15 15 14 14 14 14 14 13 13 13 13 14 13 14 14 13 13 12
19 19 19 18 17 16 15 17 17 17 17 17 16 16 15 15 15 15 15 15 14 14 14 14 14 14 14 14 13 13 13 13 13
18 18 18 18 17 17 16 15 17 17 17 17 16 16 16 16 16 16 15 15 15 15 15 14 14 14 14 14 14 13 14 14 13
18 18 18 18 18 17 17 16 16 15 16 17 17 17 17 17 16 16 16 16 15 15 15 15 15 15 15 14 14 14 14 14 14
17 17 17 17 17 17 16 16 16 16 16 16 17 17 17 17 17 17 16 16 16 16 16 15 15 15 15 15 15 15 14 14 15
15 15 16 16 16 17 16 16 16 16 17 17 17 18 18 18 18 18 17 17 17 17 17 16 16 16 16 16 16 16 15 14 14
15 15 15 15 15 15 16 17 17 17 18 17 18 18 18 18 18 18 18 18 17 17 17 17 16 16 16 16 17 16 16 15 14
14 14 14 14 14 15 16 16 16 16 16 17 17 17 18 18 18 18 19 19 18 18 17 17 17 16 16 17 17 16 16 15 15
13 13 13 14 14 15 15 16 16 16 16 16 17 18 18 18 18 18 19 19 19 18 17 17 17 17 16 17 17 16 16 16 15
13 14 14 14 14 14 15 15 15 15 15 15 17 18 18 18 18 18 19 19 19 18 18 17 17 17 17 17 17 17 16 16 16
13 14 14 14 14 14 14 14 15 15 16 17 17 17 17 18 18 18 18 19 18 18 18 18 17 17 17 17 17 17 17 17 17
12 12 12 13 14 14 14 15 15 16 16 16 17 16 17 17 17 18 18 18 18 18 18 18 17 17 17 17 17 17 17 17 17
11 9 12 13 14 14 13 15 15 16 16 17 17 17 17 17 17 17 17 17 17 17 18 17 17 17 17 17 17 17 17 17 17
11 11 12 13 13 14 15 15 15 16 16 16 16 17 17 17 17 17 17 17 17 17 17 17 17 17 16 16 16 17 17 17 16
11 11 11 12 12 14 14 15 15 15 16 16 16 16 17 16 17 17 17 17 17 16 16 16 16 15 15 16 16 16 16 15 15
11 11 12 11 12 13 14 14 15 15 15 16 16 16 16 16 16 16 16 15 15 15 15 15 16 16 16 15 15 15 15 15 15

GFSFLT1_700_temp_033.txt.gz
Temp
18 16 17 17 16 15 15 15 15 15 15 14 14 14 13 13 13 13 13 13 13 13 13 13 12 12 12 12 12 12 11 11 11
18 17 17 16 17 16 15 15 15 15 15 14 14 14 14 14 14 13 14 13 13 13 13 13 13 12 13 12 12 13 12 12 11
18 18 18 17 17 16 17 16 16 15 15 14 14 14 14 14 14 14 13 13 13 13 13 13 13 13 13 13 13 12 13 12 11
19 18 17 18 17 16 17 17 16 15 14 15 14 14 15 14 14 14 13 13 13 13 13 13 13 14 14 13 13 13 12 13 12
19 19 18 18 17 17 17 17 17 16 15 15 15 15 15 15 14 14 14 14 14 14 13 13 13 13 13 13 13 13 13 13 13
19 19 18 18 18 17 17 17 17 16 16 16 16 16 16 15 15 15 15 14 14 14 14 14 13 13 14 14 13 13 13 13 13
19 19 18 18 18 17 17 18 18 17 16 16 15 16 16 16 16 16 16 15 15 15 15 14 14 14 14 15 15 14 13 13 13
19 19 19 18 18 18 17 17 17 17 16 16 16 16 16 16 16 16 16 16 16 16 16 15 15 15 14 15 15 15 14 14 13
18 18 18 18 18 18 17 17 17 18 17 16 16 16 16 16 16 16 16 16 16 16 16 16 16 16 16 15 16 15 15 14 14
18 18 18 17 16 16 16 17 17 17 17 17 17 17 17 17 17 17 17 16 16 16 16 16 16 16 16 16 16 16 15 14 14
16 16 16 16 16 15 15 15 15 16 16 16 17 18 18 18 18 18 17 17 17 16 16 16 16 16 16 16 16 16 15 15 14
16 16 16 16 15 15 15 15 15 15 16 16 17 17 18 18 18 18 18 18 18 17 17 17 17 17 17 17 17 16 16 15 15
15 15 15 15 15 15 15 15 15 16 16 16 17 17 17 17 17 18 18 18 18 18 17 17 17 17 17 17 17 17 16 16 16
15 15 16 16 16 16 15 15 15 15 15 15 16 16 16 16 17 17 18 17 18 18 18 17 18 18 18 17 17 17 16 16 16
13 14 14 14 14 14 15 15 15 15 15 15 15 15 16 16 16 16 17 17 17 18 18 18 18 18 18 18 17 17 17 16 16
12 13 14 14 13 14 14 14 15 15 15 15 15 15 16 16 17 17 17 17 17 17 18 18 18 18 18 18 17 17 17 17 17
11 13 14 14 13 13 13 14 14 14 14 15 15 15 15 16 16 16 16 17 17 17 17 17 17 17 17 17 17 17 17 17 17
12 12 13 13 13 13 13 14 14 14 14 15 15 15 16 16 16 16 16 16 17 17 17 16 16 16 16 16 16 17 16 16 16
11 12 13 12 12 13 13 13 13 14 15 15 15 15 16 16 16 16 16 16 16 17 17 16 16 16 16 16 16 16 16 16 15
12 12 12 12 12 12 13 13 13 14 14 15 15 15 15 15 16 16 16 16 16 16 16 16 16 16 16 16 16 15 15 14 14

GFSFLT1_700_temp_036.txt.gz
Temp
18 17 17 16 16 16 16 14 14 14 14 13 13 13 13 13 12 12 12 12 12 12 12 12 12 12 11 11 12 11 11 11 11
17 17 17 17 17 16 16 15 15 14 14 14 14 14 13 13 13 13 13 13 13 13 12 12 12 12 12 12 12 11 11 11 11
17 17 17 17 17 16 16 16 16 15 14 14 14 14 13 13 13 13 13 13 13 13 13 12 12 12 12 12 12 12 12 11 11
18 17 17 17 17 17 17 17 16 15 14 14 14 14 14 14 14 14 13 13 13 13 13 13 12 12 12 12 12 12 12 12 11
18 18 18 18 18 17 17 17 16 16 14 14 14 15 15 14 14 14 14 13 13 13 13 13 13 12 13 13 12 12 12 12 12
18 18 18 18 17 17 17 17 17 16 15 14 15 15 15 15 15 15 14 14 13 13 13 13 13 13 13 13 13 12 12 12 12
19 19 19 18 18 18 17 17 17 17 16 15 14 15 16 15 15 15 15 14 14 14 14 14 14 14 13 14 13 13 13 12 12
19 19 19 18 18 18 17 17 17 17 17 16 15 16 16 16 16 15 15 15 15 15 14 14 14 14 15 15 15 14 14 13 13
19 19 18 18 18 18 17 17 17 17 17 17 16 16 17 16 16 16 16 16 16 15 15 15 15 15 15 16 16 15 15 14 14
19 19 19 18 18 18 18 17 17 17 17 17 17 16 16 16 16 16 16 16 16 16 16 16 16 16 15 16 16 15 15 14 14
19 18 18 18 18 18 17 17 17 17 17 16 16 17 16 16 16 16 16 16 16 16 16 16 16 16 16 16 16 15 15 14 14
16 15 16 17 16 17 17 17 17 16 16 16 16 16 17 17 17 17 17 17 17 17 16 16 16 16 16 16 16 15 15 14 14
15 15 15 15 15 15 16 16 16 16 16 16 16 17 17 17 17 17 17 17 17 17 17 16 16 16 16 16 16 16 16 15 15
15 15 15 15 15 15 15 14 15 15 15 16 16 16 16 16 17 18 17 17 17 17 17 17 17 17 16 17 17 16 16 16 16
15 15 15 15 15 15 15 15 15 15 15 16 16 16 16 16 17 17 17 17 17 17 17 17 17 17 18 17 17 17 17 17 17
14 14 15 15 15 15 15 15 15 15 15 15 15 15 15 16 16 16 16 16 16 16 17 17 17 17 18 18 17 17 18 18 17
13 14 14 14 14 15 15 15 15 15 14 14 14 14 14 15 15 15 15 15 15 16 16 16 17 17 17 17 17 17 18 17 17
12 13 13 14 14 14 14 15 15 15 14 14 14 14 14 14 14 14 15 15 15 16 16 16 16 17 17 17 17 17 17 17 17
11 11 11 12 12 13 13 14 14 14 14 14 14 14 14 15 15 15 15 15 16 16 16 16 16 16 16 17 16 16 16 16 16
9 10 10 10 11 12 12 13 13 14 14 14 15 14 14 15 15 15 15 16 16 16 16 16 16 16 16 16 16 16 15 15 15

GFSFLT1_700_temp_042.txt.gz
Temp
15 15 14 14 14 14 14 13 13 12 12 12 12 12 12 12 11 11 11 10 10 10 11 10 10 10 10 10 10 10 10 10 11
15 15 15 15 14 14 14 14 13 14 13 12 12 12 12 12 12 11 11 11 10 11 11 10 10 10 11 10 10 11 11 11 11
16 16 16 15 15 15 15 14 14 13 13 13 13 12 12 12 12 12 11 11 11 11 11 11 10 11 11 11 11 11 11 11 11
16 16 17 17 16 15 15 14 14 14 13 13 13 12 12 12 12 12 12 12 11 11 11 11 11 11 11 11 11 11 11 11 11
17 17 17 17 17 16 16 15 15 14 14 13 13 13 12 12 12 12 12 12 12 11 11 11 11 11 11 11 11 11 11 11 11
16 17 17 17 16 17 16 16 16 15 14 13 13 12 12 12 12 12 12 12 12 12 11 11 11 11 12 12 12 12 12 11 12
16 17 17 17 17 17 17 16 16 16 15 13 13 12 12 12 13 13 13 12 12 12 12 12 12 12 12 12 12 12 12 12 12
16 16 17 17 18 18 17 17 16 16 15 14 13 12 12 13 13 13 13 13 13 13 12 12 12 12 12 12 12 12 12 12 12
16 17 17 17 18 18 18 18 17 16 16 15 14 13 13 13 13 13 13 13 13 13 13 13 13 13 13 13 13 12 12 12 12
17 17 17 18 18 18 18 18 17 16 16 16 14 13 12 13 14 14 14 14 14 13 13 13 13 13 13 14 13 13 13 13 13
17 17 18 18 18 18 19 18 18 17 16 16 14 14 14 15 15 15 14 14 14 14 14 14 14 14 14 14 14 14 14 14 14
17 18 19 19 19 19 18 18 18 17 16 16 15 14 15 15 15 15 15 15 15 14 14 15 15 14 14 15 15 14 14 14 14
18 19 19 19 19 18 18 18 18 17 16 16 16 15 16 15 15 15 15 15 14 14 14 14 14 14 14 14 14 14 14 14 14
17 18 18 18 18 18 18 18 18 17 16 16 16 15 15 15 14 15 14 14 14 14 15 14 15 15 15 15 15 15 15 15 15
16 17 18 18 18 18 18 18 17 17 16 16 15 15 16 15 15 15 15 14 14 14 15 15 15 15 15 15 15 15 15 15 15
15 16 17 17 17 17 18 17 17 17 16 16 15 15 16 16 15 15 15 16 15 16 16 16 16 16 16 15 15 15 15 15 15
12 13 14 15 17 17 16 17 17 17 17 16 16 15 15 16 16 16 16 15 16 16 16 16 16 15 15 15 15 15 15 16 16
11 12 12 13 14 15 15 15 15 15 16 16 15 16 15 15 16 16 15 16 15 15 15 16 15 15 15 15 15 15 15 16 16
10 11 11 12 13 13 14 14 14 14 15 15 15 15 15 15 15 15 15 16 15 15 15 15 15 14 15 15 15 15 15 15 15
8 9 10 11 11 12 13 13 14 14 14 15 15 15 14 15 15 15 15 15 15 15 15 14 14 14 14 14 14 15 15 15 15

GFSFLT1_700_temp_045.txt.gz
Temp
15 15 15 14 14 14 14 13 13 13 13 12 12 11 11 11 10 11 11 11 11 10 10 10 10 10 10 10 10 11 11 11 11
15 15 15 15 14 14 14 13 13 13 13 12 12 12 12 11 11 11 11 11 11 11 10 10 10 10 10 10 11 11 11 11 11
15 15 15 15 15 14 14 14 13 12 12 12 12 11 11 11 11 11 11 11 11 11 11 10 10 10 10 11 11 11 11 11 11
15 16 16 16 16 16 15 14 13 13 12 12 12 11 11 11 11 12 11 11 11 11 11 11 10 11 11 11 11 11 12 11 11
15 16 16 16 16 16 16 15 14 14 13 12 12 12 12 11 12 11 12 12 12 11 11 11 11 11 11 11 11 12 12 12 12
15 15 16 16 16 17 16 16 15 15 14 13 12 12 12 12 12 11 12 12 12 11 11 11 11 11 12 11 11 12 12 12 12
15 15 15 16 16 16 17 17 16 15 15 14 13 12 12 12 12 12 12 12 12 12 12 12 12 12 12 12 11 12 12 12 12
15 15 16 16 16 16 17 17 17 16 15 14 13 13 12 12 12 12 12 12 12 12 12 12 12 12 12 12 12 12 12 12 12
13 14 15 16 16 16 17 17 17 16 16 15 14 13 13 12 11 12 12 12 12 12 12 12 12 12 12 12 12 12 12 12 12
14 14 15 15 16 17 17 18 17 17 16 16 15 14 13 12 12 12 13 13 13 13 13 13 13 13 12 12 12 12 12 12 12
14 15 15 16 16 17 17 18 18 17 17 16 15 15 14 13 12 12 13 14 14 13 13 13 13 13 13 13 13 13 13 13 13
14 15 16 16 17 17 17 18 18 17 17 16 15 15 14 13 13 13 14 14 14 14 14 13 13 13 13 13 13 13 13 13 13
15 15 17 17 17 17 18 18 18 17 17 17 16 15 14 14 14 14 15 14 14 14 14 14 13 14 14 14 14 14 14 14 14
15 15 17 18 18 18 18 18 18 18 17 17 16 16 15 14 14 14 14 14 14 14 14 14 14 14 14 14 14 14 14 14 15
15 15 16 16 16 18 18 18 18 17 17 17 16 16 15 14 14 14 14 14 14 14 14 14 15 15 15 15 15 14 14 15 15
14 14 15 16 16 17 17 17 17 17 17 17 16 16 15 14 14 14 14 14 14 14 14 15 15 15 15 15 14 14 15 15 15
11 12 13 15 17 17 17 16 17 17 17 16 16 16 15 15 15 14 14 14 14 14 15 16 16 16 16 15 15 15 15 15 15
11 12 12 13 14 15 16 16 16 16 17 16 16 16 16 15 15 14 15 15 15 15 15 15 16 16 15 15 15 15 15 15 15
11 11 11 12 13 14 13 14 14 15 15 16 16 16 15 15 15 15 15 15 15 15 15 15 16 14 14 15 15 15 15 15 14
10 11 11 11 10 11 12 12 13 13 13 14 15 14 14 14 14 12 13 15 14 14 14 14 14 15 14 15 15 14 14 14 14

GFSFLT1_700_temp_048.txt.gz
Temp
13 13 15 15 15 14 13 13 13 12 12 12 11 12 11 11 11 10 10 10 10 10 10 10 11 11 11 10 11 10 10 10 10
14 13 15 15 15 15 14 14 14 13 13 12 12 12 12 12 11 10 11 11 11 11 11 11 11 11 11 11 11 11 11 11 11
14 13 15 15 15 15 14 14 14 13 13 13 13 12 12 12 12 11 11 10 11 11 11 11 11 11 11 11 11 11 11 11 11
14 14 15 15 15 15 15 14 14 13 14 13 13 13 13 12 12 12 11 10 11 11 11 11 12 12 12 12 12 12 11 11 11
15 14 14 15 15 15 15 15 14 14 13 14 13 13 13 13 12 12 11 11 11 11 11 11 11 12 12 12 12 12 12 12 11
14 14 14 15 15 15 16 16 15 15 14 13 13 13 13 13 12 12 12 11 11 11 11 11 11 12 12 12 12 12 12 12 12
14 14 14 14 15 15 16 16 16 16 15 14 13 13 13 13 13 13 13 12 11 11 11 11 12 12 12 12 12 12 12 12 12
13 13 14 15 15 16 16 16 16 16 15 15 14 13 13 13 13 13 12 12 12 12 12 12 12 12 12 12 12 12 13 12 12
12 13 14 14 15 15 16 16 16 16 16 16 15 14 13 13 13 12 12 12 12 12 12 12 12 12 12 13 13 13 12 12 12
12 13 13 14 15 15 16 16 17 17 16 16 15 15 14 13 13 12 13 12 12 12 12 12 13 12 13 13 13 13 12 12 12
13 13 13 14 15 15 16 16 17 17 17 16 16 15 14 14 13 13 12 12 12 13 13 13 13 13 13 13 13 13 13 12 12
12 13 14 14 15 15 16 16 17 17 17 17 16 15 15 14 14 13 12 12 12 13 13 13 13 14 13 13 13 13 13 13 13
12 13 14 15 15 15 16 16 17 17 18 17 17 16 15 15 14 14 13 12 12 13 14 14 14 14 14 13 13 13 13 13 14
12 13 14 15 15 16 16 17 17 17 17 17 17 16 15 15 15 14 13 13 13 13 14 14 14 14 14 14 14 14 14 14 14
12 13 14 15 16 16 17 17 17 17 17 18 17 16 16 16 14 14 13 12 13 14 14 14 14 14 14 15 15 15 15 15 15
12 13 14 14 15 17 17 17 17 17 17 17 17 16 16 15 15 14 14 14 14 14 14 15 15 15 15 15 16 15 15 15 15
11 12 13 12 12 14 16 17 17 17 17 17 15 16 16 15 15 14 14 14 14 14 15 15 15 15 15 15 15 14 14 15 15
8 10 10 11 10 10 11 14 17 17 17 17 17 16 16 16 15 14 14 13 13 14 14 14 14 14 14 14 14 15 15 15 15
9 9 9 10 10 10 11 12 14 16 17 17 16 16 16 16 15 14 14 13 13 13 14 14 14 14 14 14 14 15 15 15 15
8 9 9 10 9 9 9 11 13 15 16 15 16 16 16 15 14 15 14 14 13 13 13 13 13 13 13 14 14 14 14 14 14